SCP
0 0 0 0 0 0 0 0 0 0 0 0 0 0 0 0 0 0 0 0 0 0 0 0 0 0 0 0 0 0 0 0 0 0 0 0 0 0 0 0 0 0 0 0
0 0 0 0 0 0 0 0 0 0 0 0 0 0 0 0 0 0 0 0 0 0 0 0 0 0 0 0 0 0 0 0 0 0 0 0 0 0 0 0 0 0 0 0
0 0 0 0 0 0 0 0 0 0 0 0 0 0 0 0 0 0 0 0 0 0 0 0 0 0 0 0 0 0 0 0 0 0 0 0 0 0 0 0 0 0 0 0
0 0 0 0 0 0 0 0 0 0 0 0 0 0 0 0 0 0 0 0 0 0 0 0 0 0 0 0 0 0 0 0 0 0 0 0 0 0 0 0 0 0 0 0
0 0 0 0 0 0 0 0 0 0 0 0 0 0 0 0 0 0 0 0 0 0 0 0 0 0 0 0 0 0 0 0 0 0 0 0 0 0 0 0 0 0 0 0
0 0 0 0 0 0 0 0 0 0 0 0 0 0 0 0 0 0 0 0 0 0 0 0 0 0 0 0 0 0 0 0 0 0 0 0 0 0 0 0 0 0 0 0
0 0 0 0 0 0 0 0 0 0 0 0 0 0 0 0 0 0 0 0 0 0 0 0 0 0 0 0 0 0 0 0 0 0 0 0 0 0 0 0 0 0 0 0
0 0 0 0 0 0 0 0 0 0 0 0 0 0 0 0 0 0 0 0 0 0 0 0 0 0 0 0 0 0 0 0 0 0 0 0 0 0 0 0 0 0 0 0
0 0 0 0 0 0 0 0 0 0 0 0 0 0 0 0 0 0 0 0 0 0 0 0 0 0 0 0 0 0 0 0 0 0 0 0 0 0 0 0 0 0 0 0
0 0 0 0 0 0 0 0 0 0 0 0 0 0 0 0 0 0 0 0 0 0 0 0 0 0 0 0 0 0 0 0 0 0 0 0 0 0 0 0 0 0 0 0
0 0 0 0 0 0 0 0 0 0 0 0 0 0 0 0 0 0 0 0 0 0 0 0 0 0 0 0 0 0 0 0 0 0 0 0 0 0 0 0 0 0 0 0
0 0 0 0 0 0 0 0 0 0 0 0 0 0 0 0 0 0 0 0 0 0 0 0 0 0 0 0 0 0 0 0 0 0 0 0 0 0 0 0 0 0 0 0
0 0 0 0 0 0 0 0 0 0 0 0 0 0 0 0 0 0 0 0 0 0 0 0 0 0 0 0 0 0 0 0 0 0 0 0 0 0 0 0 0 0 0 0
0 0 0 0 0 0 0 0 0 0 0 0 0 0 0 0 0 0 0 0 0 0 0 0 0 0 0 0 0 0 0 0 0 0 0 0 0 0 0 0 0 0 0 0
0 0 0 0 0 0 0 0 0 0 0 0 0 0 0 0 0 0 0 0 0 0 0 0 0 0 0 0 0 0 0 0 0 0 0 0 0 0 0 0 0 0 0 0
0 0 0 0 0 0 0 0 0 0 0 0 0 0 0 0 0 0 0 0 0 0 0 0 0 0 0 0 0 0 0 0 0 0 0 0 0 0 0 0 0 0 0 0
0 0 0 0 0 0 0 0 0 0 0 0 0 0 0 0 0 0 0 0 0 0 0 0 0 0 0 0 0 0 0 0 0 0 0 0 0 0 0 0 0 0 0 0
0 0 0 0 0 0 0 0 0 0 0 0 0 0 0 0 0 0 0 0 0 0 0 0 0 0 0 0 0 0 0 0 0 0 0 0 0 0 0 0 0 0 0 0
0 0 0 0 0 0 0 0 0 0 0 0 0 0 0 0 0 0 0 0 0 0 0 0 0 0 0 0 0 0 0 0 0 0 0 0 0 0 0 0 0 0 0 0
0 0 0 0 0 0 0 0 0 0 0 0 0 0 0 0 0 0 0 0 0 0 0 0 0 0 0 0 0 0 0 0 0 0 0 0 0 0 0 0 0 0 0 0
0 0 0 0 0 0 0 0 0 0 0 0 0 0 0 0 0 0 0 0 0 0 0 0 0 0 0 0 0 0 0 0 0 0 0 0 0 0 0 0 0 0 0 0
0 0 0 0 0 0 0 0 0 0 0 0 0 0 0 0 0 0 0 0 0 0 0 0 0 0 0 0 0 0 0 0 0 0 0 0 0 0 0 0 0 0 0 0
0 0 0 0 0 0 0 0 0 0 0 0 0 0 0 0 0 0 0 0 0 0 0 0 0 0 0 0 0 0 0 0 0 0 0 0 0 0 0 0 0 0 0 0
0 0 0 0 0 0 0 0 0 0 0 0 0 0 0 0 0 0 0 0 0 0 0 0 0 0 0 0 0 0 0 0 0 0 0 0 0 0 0 0 0 0 0 0
0 0 0 0 0 0 0 0 0 0 0 0 0 0 0 0 0 0 0 0 0 0 0 0 0 0 0 0 0 0 0 0 0 0 0 0 0 0 0 0 0 0 0 0
0 0 0 0 0 0 0 0 0 0 0 0 0 0 0 0 0 0 0 0 0 0 0 0 0 0 0 0 0 0 0 0 0 0 0 0 0 0 0 0 0 0 0 0
0 0 0 0 0 0 0 0 0 0 0 0 0 0 0 0 0 0 0 0 0 0 0 0 0 0 0 0 0 0 0 0 0 0 0 0 0 0 0 0 0 0 0 0
Wind_Speed
8 8 7 8 8 7 8 8 8 8 7 6 3 3 3 2 2 2 2 3 3 3 2 2 2 2 2 2 1 1 2 2 3 3 3 2 3 3 3 4 5 4 5 5
7 8 6 8 9 8 9 9 9 9 9 4 3 4 4 4 3 2 3 4 4 4 4 3 3 3 3 2 2 1 2 3 2 2 3 3 3 3 4 4 4 4 5 5
5 4 5 7 7 7 5 3 3 6 5 4 5 5 5 4 3 2 3 4 5 5 4 4 3 3 3 3 2 2 2 3 2 2 3 3 4 4 4 4 4 5 5 5
4 3 6 5 1 1 3 3 2 3 3 4 4 5 4 3 2 3 4 4 5 4 4 3 3 3 3 2 2 2 3 3 3 3 3 4 4 4 4 4 4 5 6 6
2 4 7 3 1 1 1 4 1 2 4 4 4 4 3 3 4 4 4 4 4 4 4 3 3 3 2 2 2 3 3 4 3 3 4 4 4 5 4 4 5 5 6 5
2 3 5 3 1 2 1 3 2 1 2 4 4 4 4 4 5 5 4 4 4 4 3 3 3 2 2 2 2 3 4 4 3 3 4 5 5 5 5 5 5 6 7 6
4 5 6 1 1 2 0 4 2 2 2 3 3 4 4 5 6 5 5 5 4 4 4 3 3 2 2 3 4 4 3 4 4 4 4 5 5 5 4 5 5 5 6 6
3 4 6 1 2 1 3 2 2 3 3 3 4 4 5 5 6 6 6 6 5 4 4 4 2 2 3 4 3 3 3 4 4 4 5 4 4 4 4 4 5 5 5 6
5 5 1 1 0 1 2 2 3 3 3 3 5 6 6 6 5 5 6 6 5 4 5 4 3 2 4 4 3 3 3 4 4 5 5 5 4 4 4 4 4 4 4 5
3 4 2 1 1 3 3 3 3 3 3 3 5 6 6 6 6 6 5 5 5 5 5 5 4 4 3 4 3 3 4 4 4 4 4 4 4 4 4 3 4 4 5 5
5 5 4 2 2 3 3 3 4 4 4 3 4 5 6 6 6 6 6 6 5 5 5 6 5 4 4 3 3 3 4 4 4 4 4 4 4 3 4 4 5 5 4 5
5 3 3 4 2 3 3 4 4 4 5 4 4 5 5 5 5 6 6 6 6 6 6 6 5 5 4 3 3 3 4 4 3 3 3 3 3 4 7 8 10 11 10 9
3 3 3 4 3 3 3 4 4 4 4 5 5 4 5 5 5 5 6 7 7 6 6 5 5 5 4 4 3 3 4 4 3 3 3 4 3 3 5 6 9 10 11 12
2 2 3 3 3 4 3 4 4 4 4 4 4 4 5 5 6 6 6 6 6 6 6 5 5 5 4 4 3 3 4 5 5 3 3 3 3 3 3 4 5 5 7 11
3 2 3 3 3 3 3 3 4 4 4 4 4 4 4 5 6 6 6 6 6 6 6 5 5 5 4 3 4 4 4 3 3 3 3 3 3 4 4 4 4 5 5 6
4 3 2 3 4 4 4 4 4 5 5 5 4 5 5 5 5 6 6 5 5 6 6 6 6 5 4 4 4 4 3 6 6 3 3 3 3 3 4 4 4 4 5 5
2 3 3 4 5 5 5 4 4 5 5 5 5 5 5 5 5 6 5 5 5 5 6 6 6 5 5 4 4 3 3 4 6 4 3 4 4 4 4 3 4 4 4 6
2 3 3 3 4 5 5 5 4 4 4 5 5 5 5 5 6 6 6 6 5 6 5 5 5 5 4 4 3 3 3 3 3 3 3 4 4 3 3 4 4 5 5 6
2 3 3 3 3 3 4 4 4 4 4 4 4 5 5 5 5 5 5 5 5 6 6 5 8 6 4 5 5 3 3 3 3 3 3 6 5 4 4 4 4 4 5 5
3 3 3 4 4 3 3 4 4 4 4 4 4 5 5 5 5 5 5 5 4 4 5 7 6 4 4 4 6 2 3 3 4 4 4 4 4 4 4 4 4 5 5 5
3 3 4 4 4 4 3 3 3 4 4 3 4 4 5 5 5 4 4 5 5 5 6 8 5 4 4 5 5 2 3 3 4 4 4 4 4 4 4 5 5 5 5 5
3 3 4 4 4 4 4 3 3 4 4 4 4 4 4 5 5 5 4 4 5 8 6 4 4 6 7 6 3 3 3 4 4 4 4 4 4 5 5 5 5 5 5 5
3 3 4 4 4 4 4 3 3 3 3 4 4 4 4 4 4 4 5 4 4 8 6 4 8 11 10 5 3 3 4 4 4 4 4 4 4 4 5 5 5 5 5 5
3 3 4 4 3 3 4 4 4 3 3 4 4 4 4 4 4 3 3 7 10 10 5 8 11 11 9 4 3 3 4 4 4 4 4 4 4 4 5 5 5 5 5 6
3 3 3 3 3 3 4 4 4 4 4 3 4 4 3 2 3 4 4 5 9 9 5 8 11 11 6 4 4 4 4 4 5 4 4 4 4 5 5 5 5 5 5 5
3 3 3 3 3 3 3 3 3 3 4 4 4 4 3 3 3 4 4 5 6 8 6 5 6 7 5 4 4 5 4 5 6 5 5 5 5 5 5 5 7 6 6 6
2 2 2 3 3 3 3 3 3 4 4 4 5 4 4 4 4 4 4 4 5 5 5 4 4 4 4 5 5 5 5 5 5 5 5 5 5 5 6 7 6 6 6 6
Wind_Direction
264 274 270 267 270 247 233 236 244 266 275 291 308 311 315 324 331 338 343 345 342 331 324 324 327 326 318 304 299 296 285 280 284 294 301 301 300 301 299 294 292 292 291 289
277 267 267 275 274 260 252 251 255 271 282 307 334 342 330 323 324 329 330 329 328 330 332 328 327 322 319 305 293 291 281 279 286 296 302 300 297 295 294 292 289 290 288 288
272 285 304 277 258 239 240 234 237 255 271 326 337 330 316 314 321 315 319 323 323 324 322 320 314 314 302 297 298 288 283 288 295 296 292 289 291 294 292 289 287 287 284 282
276 310 253 249 258 212 239 255 266 278 302 318 310 306 313 325 341 332 328 323 321 322 317 316 312 309 308 313 305 293 291 292 292 290 293 296 295 292 292 290 286 283 281 280
261 266 269 275 358 17 241 281 320 287 312 335 335 318 321 1 6 338 323 314 310 311 309 312 309 308 317 309 299 289 286 286 288 293 296 294 291 291 292 291 289 284 284 282
247 261 263 277 331 338 45 289 356 12 319 326 337 318 298 342 346 331 325 319 315 316 317 315 310 311 300 289 285 277 280 286 290 288 288 288 288 292 292 290 287 290 291 289
239 251 262 293 338 26 68 275 331 348 323 321 308 277 290 316 323 324 322 319 319 316 312 305 304 304 287 284 280 284 293 295 291 287 283 282 284 286 287 289 291 290 291 290
214 236 257 58 85 178 251 325 344 335 329 317 305 306 311 315 318 322 323 321 321 318 312 311 307 296 290 287 293 302 302 298 294 290 285 286 281 284 284 284 287 288 289 292
205 223 264 104 200 285 338 319 321 321 316 308 306 309 312 313 313 316 318 317 318 311 308 311 310 293 283 292 299 298 295 292 292 294 290 288 283 283 285 281 280 285 288 293
273 273 280 269 281 320 329 315 322 324 318 316 306 306 310 311 314 317 317 316 315 310 307 307 310 300 284 290 293 288 287 291 293 293 291 289 284 282 282 280 281 286 289 292
263 281 305 299 319 338 337 343 346 341 330 318 311 310 312 312 314 316 319 319 316 309 304 302 307 303 297 292 284 285 287 291 295 292 289 291 290 284 287 273 281 288 285 289
252 278 274 291 334 342 334 331 331 329 325 324 316 306 310 309 310 313 314 315 314 309 305 303 304 301 300 294 277 275 287 291 290 289 291 294 295 300 300 298 299 298 297 295
266 307 301 298 315 335 325 319 323 319 309 312 317 310 308 307 310 312 311 311 309 308 304 301 302 301 302 300 291 280 280 288 288 290 291 293 296 298 305 311 307 306 306 307
306 328 305 304 309 327 327 325 325 319 314 310 311 315 314 311 312 312 310 310 310 308 303 300 301 299 301 300 297 293 287 286 291 283 286 288 291 293 296 302 310 311 312 313
311 300 275 295 314 325 326 324 321 318 320 320 320 317 315 312 309 308 306 309 312 308 305 305 302 299 304 301 298 292 290 288 290 290 289 287 289 290 292 295 298 304 311 315
316 313 304 305 307 313 318 318 313 310 315 314 316 314 310 306 303 301 303 307 308 307 308 306 300 301 304 301 300 295 289 295 303 300 296 296 293 289 289 292 297 302 305 308
321 310 307 305 306 307 308 306 302 303 308 309 309 312 314 313 310 308 310 312 306 300 299 298 300 305 306 298 290 289 290 295 302 303 295 295 296 290 287 290 295 298 299 302
272 277 279 279 291 303 309 312 309 306 304 302 308 312 312 310 308 308 311 315 315 310 304 305 309 312 309 303 295 287 290 290 291 292 295 296 299 298 297 291 290 293 298 302
323 317 314 312 308 301 300 304 308 309 307 310 311 307 303 302 303 305 309 313 313 312 317 321 321 326 317 308 309 296 299 302 299 299 297 298 302 299 298 296 296 296 296 299
343 340 333 327 325 315 306 306 309 309 311 314 311 309 310 311 310 309 309 303 296 296 306 314 318 317 314 304 311 309 303 300 300 300 296 292 294 297 299 300 298 299 299 299
330 330 329 325 322 317 307 303 305 304 308 308 302 301 304 308 309 308 308 308 309 313 318 321 325 314 310 310 314 312 303 300 299 297 297 298 300 300 300 301 302 301 301 301
321 322 320 318 317 316 315 310 302 299 305 307 304 304 308 311 314 310 299 293 307 320 328 321 316 311 315 321 318 310 304 301 301 300 299 298 297 297 298 301 300 300 301 301
317 318 316 315 311 308 314 316 310 305 304 305 306 306 304 303 306 309 312 315 319 320 326 316 316 318 324 331 317 308 306 303 301 301 299 298 298 299 297 297 296 298 299 300
324 321 315 313 316 318 319 320 317 311 304 302 303 303 303 306 307 300 300 313 321 323 322 317 323 326 334 335 320 313 308 304 300 298 298 298 297 296 296 297 298 299 298 298
315 313 314 321 321 314 312 318 321 319 319 317 317 317 310 300 299 307 311 312 319 325 323 324 328 333 337 326 322 317 313 307 304 304 300 299 298 297 296 295 295 296 297 295
311 309 306 301 298 304 313 316 315 317 322 321 319 319 319 315 308 309 312 315 316 322 325 322 324 327 327 323 320 318 315 315 317 313 305 302 299 297 295 294 294 293 292 291
312 312 313 315 317 316 313 311 310 311 315 311 311 315 319 319 319 320 319 318 318 320 319 320 321 320 319 318 317 316 313 311 309 305 304 302 300 298 298 296 294 293 291 290